Staunton, VA

9:16 AM EDT on April 27, 2017 (GMT -0400)
Shenandoah Valley Regional

Weather History for KSHD - May, 2013

Change the Weather History Date:

Wednesday, May 8, 2013

  Actual Average Record
Temperature  
Mean Temperature 55 °F -  
Max Temperature 60 °F 73 °F 91 °F (2000)
Min Temperature 50 °F 49 °F 33 °F (2007)
Degree Days  
Heating Degree Days 10    
Growing Degree Days 5 (Base 50)    
Moisture  
Dew Point 53 °F    
Average Humidity 90    
Maximum Humidity 96    
Minimum Humidity 78    
Precipitation  
Precipitation 0.17 in - - ()
Sea Level Pressure  
Sea Level Pressure 29.99 in    
Wind  
Wind Speed 2 mph (East)    
Max Wind Speed 8 mph    
Max Gust Speed -    
Visibility 6 miles    
Events Fog , Rain    
Averages and records for this station are not official NWS values.
T = Trace of Precipitation, MM = Missing Value Source: NWS Daily Summary

Daily Weather History Graph

Daily Weather History Graph

Search for Another Location

Airport or City:

Trip Planner

Search our weather history database for the weather conditions in past years. The results will help you decide how hot, cold, wet, or windy it might be!

Date:

Astronomy

May. 08, 2013 Rise Set
Actual Time 6:11 AM EDT 8:13 PM EDT
Civil Twilight 5:41 AM EDT 8:42 PM EDT
Nautical Twilight 5:06 AM EDT 9:18 PM EDT
Astronomical Twilight 4:28 AM EDT 9:56 PM EDT
Moon 5:16 AM EDT (5/8) 7:10 PM EDT (5/8)
Length of Visible Light 15h 00m
Length of Day
14h 02m
Waning Crescent, 2% of the Moon is Illuminated
May 8
Waning Crescent
May 9
New
May 18
First Quarter
May 25
Full
May 31
Last Quarter

Hourly Weather History & Observations

Time (EDT) Temp. Dew Point Humidity Pressure Visibility Wind Dir Wind Speed Gust Speed Precip Events Conditions
12:15 AM 53.8 °F 52.2 °F 94% 29.96 in 10.0 mi Calm Calm - N/A   Overcast
12:35 AM 53.6 °F 52.0 °F 94% 29.97 in 7.0 mi Calm Calm - N/A   Overcast
12:55 AM 53.8 °F 52.2 °F 94% 29.97 in 4.0 mi SSW 3.5 mph - N/A   Overcast
1:15 AM 53.6 °F 51.8 °F 94% 29.96 in 3.0 mi Calm Calm - N/A   Overcast
1:35 AM 53.1 °F 51.8 °F 95% 29.96 in 2.5 mi Calm Calm - N/A   Mostly Cloudy
1:55 AM 52.9 °F 51.4 °F 95% 29.97 in 2.0 mi NE 3.5 mph - N/A   Overcast
2:15 AM 53.2 °F 51.8 °F 95% 29.97 in 3.0 mi Calm Calm - N/A   Overcast
2:35 AM 53.1 °F 51.8 °F 95% 29.96 in 3.0 mi Calm Calm - N/A   Overcast
2:55 AM 52.7 °F 51.3 °F 95% 29.96 in 2.0 mi Calm Calm - N/A   Overcast
3:15 AM 52.7 °F 51.3 °F 95% 29.96 in 2.5 mi Calm Calm - N/A   Overcast
3:35 AM 52.2 °F 50.9 °F 95% 29.97 in 1.2 mi Calm Calm - N/A   Overcast
3:55 AM 52.5 °F 51.3 °F 95% 29.97 in 2.5 mi Calm Calm - N/A Rain Rain
4:15 AM 52.2 °F 50.9 °F 95% 29.97 in 2.0 mi Calm Calm - N/A   Overcast
4:35 AM 52.2 °F 50.9 °F 95% 29.96 in 3.0 mi Calm Calm - N/A   Overcast
4:55 AM 52.0 °F 50.9 °F 96% 29.97 in 2.0 mi Calm Calm - N/A   Overcast
5:15 AM 52.7 °F 51.3 °F 95% 29.96 in 3.0 mi Calm Calm - N/A   Overcast
5:35 AM 52.7 °F 51.4 °F 95% 29.96 in 3.0 mi Calm Calm - N/A   Overcast
5:55 AM 52.2 °F 50.9 °F 95% 29.97 in 2.5 mi Calm Calm - N/A   Overcast
6:15 AM 52.7 °F 51.4 °F 95% 29.97 in 3.0 mi Calm Calm - N/A   Overcast
6:35 AM 52.9 °F 51.6 °F 95% 29.98 in 2.5 mi NNW 3.5 mph - N/A   Overcast
6:55 AM 53.1 °F 51.8 °F 95% 29.98 in 2.5 mi Calm Calm - N/A   Overcast
7:15 AM 53.6 °F 52.5 °F 96% 29.99 in 2.5 mi North 3.5 mph - N/A   Overcast
7:35 AM 54.0 °F 52.7 °F 95% 30.00 in 3.0 mi NE 3.5 mph - N/A   Overcast
8:15 AM 54.1 °F 52.5 °F 94% 30.01 in 5.0 mi NE 4.6 mph - N/A   Overcast
8:35 AM 54.5 °F 52.5 °F 93% 30.01 in 5.0 mi NNE 4.6 mph - N/A   Overcast
8:55 AM 55.0 °F 52.9 °F 92% 30.02 in 5.0 mi NE 4.6 mph - N/A   Overcast
9:15 AM 55.8 °F 53.1 °F 91% 30.02 in 10.0 mi ENE 5.8 mph - N/A   Overcast
9:35 AM 56.5 °F 53.6 °F 90% 30.02 in 10.0 mi NE 6.9 mph - N/A   Overcast
9:55 AM 56.5 °F 52.9 °F 88% 30.02 in 10.0 mi NE 4.6 mph - N/A   Overcast
10:15 AM 57.0 °F 53.6 °F 88% 30.02 in 10.0 mi NE 4.6 mph - N/A Rain Rain
10:35 AM 57.2 °F 53.8 °F 88% 30.02 in 10.0 mi Calm Calm - N/A   Overcast
10:55 AM 57.2 °F 54.0 °F 89% 30.02 in 5.0 mi NNE 4.6 mph - N/A Rain Rain
11:15 AM 58.1 °F 55.0 °F 90% 30.02 in 7.0 mi North 3.5 mph - N/A Rain Light Rain
11:35 AM 58.6 °F 54.5 °F 86% 30.02 in 10.0 mi ENE 4.6 mph - N/A Rain Light Rain
11:55 AM 60.8 °F 54.3 °F 79% 30.01 in 10.0 mi NE 4.6 mph - 0.01 in   Overcast
12:15 PM 60.4 °F 54.1 °F 80% 30.00 in 10.0 mi Calm Calm - N/A   Overcast
12:35 PM 60.4 °F 53.4 °F 78% 30.00 in 10.0 mi SE 8.1 mph - N/A Rain Light Rain
12:55 PM 58.8 °F 55.2 °F 88% 30.00 in 4.0 mi SW 6.9 mph - 0.02 in Rain Rain
1:15 PM 58.1 °F 54.5 °F 88% 29.99 in 4.0 mi South 3.5 mph - 0.03 in Rain Light Rain
1:35 PM 58.6 °F 54.1 °F 85% 29.99 in 10.0 mi South 4.6 mph - 0.06 in   Overcast
1:55 PM 59.0 °F 54.3 °F 84% 29.99 in 10.0 mi SSE 4.6 mph - 0.06 in Rain Light Rain
2:15 PM 59.0 °F 53.6 °F 82% 29.98 in 10.0 mi SSE 3.5 mph - N/A Rain Light Rain
2:35 PM 59.9 °F 54.5 °F 82% 29.98 in 10.0 mi South 3.5 mph - N/A   Overcast
2:55 PM 60.3 °F 53.8 °F 79% 29.98 in 10.0 mi SSW 5.8 mph - N/A Rain Light Rain
3:15 PM 59.2 °F 53.6 °F 82% 29.98 in 10.0 mi South 6.9 mph - 0.01 in Rain Light Rain
3:35 PM 57.9 °F 54.1 °F 87% 29.98 in 10.0 mi South 6.9 mph - 0.02 in Rain Light Rain
3:55 PM 57.2 °F 53.4 °F 87% 29.98 in 10.0 mi South 4.6 mph - 0.04 in Rain Light Rain
4:15 PM 57.2 °F 53.2 °F 87% 29.97 in 10.0 mi South 4.6 mph - 0.01 in Rain Light Rain
4:35 PM 57.6 °F 53.6 °F 87% 29.98 in 10.0 mi Calm Calm - 0.02 in Rain Light Rain
4:55 PM 57.7 °F 54.0 °F 87% 29.98 in 10.0 mi Calm Calm - 0.03 in Rain Light Rain
5:15 PM 57.9 °F 54.3 °F 88% 29.98 in 10.0 mi Calm Calm - 0.01 in Rain Light Rain
5:35 PM 58.1 °F 53.8 °F 86% 29.98 in 10.0 mi Calm Calm - 0.01 in Rain Light Rain
5:55 PM 58.3 °F 53.4 °F 84% 29.97 in 10.0 mi East 3.5 mph - 0.01 in   Light Drizzle
6:15 PM 58.1 °F 53.8 °F 86% 29.97 in 10.0 mi East 4.6 mph - N/A   Light Drizzle
6:35 PM 57.9 °F 53.2 °F 84% 29.97 in 10.0 mi East 3.5 mph - N/A   Scattered Clouds
6:55 PM 58.1 °F 54.0 °F 86% 29.97 in 10.0 mi Calm Calm - N/A   Clear
7:15 PM 58.1 °F 53.8 °F 86% 29.97 in 10.0 mi Calm Calm - N/A   Clear
7:35 PM 58.1 °F 53.8 °F 86% 29.97 in 10.0 mi Calm Calm - N/A   Clear
7:55 PM 57.9 °F 52.7 °F 83% 29.98 in 10.0 mi Calm Calm - N/A   Clear
8:15 PM 57.4 °F 52.2 °F 83% 29.98 in 10.0 mi Calm Calm - N/A   Clear
8:35 PM 55.9 °F 53.1 °F 90% 29.99 in 10.0 mi Calm Calm - N/A   Scattered Clouds
8:55 PM 54.1 °F 52.0 °F 92% 29.99 in 1.2 mi Calm Calm - N/A   Scattered Clouds
9:15 PM 53.2 °F 51.4 °F 94% 29.99 in 4.0 mi Calm Calm - N/A   Clear
9:35 PM 52.3 °F 50.9 °F 95% 30.00 in 0.8 mi Calm Calm - N/A   Mist
9:55 PM 51.8 °F 50.4 °F 95% 30.00 in 0.2 mi Calm Calm - N/A Fog Fog
10:15 PM 50.9 °F 49.5 °F 95% 30.01 in 0.2 mi Calm Calm - N/A Fog Fog
10:35 PM 51.1 °F 50.0 °F 96% 30.01 in 0.2 mi Calm Calm - N/A Fog Fog
10:55 PM 50.7 °F 49.5 °F 95% 30.01 in 0.2 mi Calm Calm - N/A Fog Fog
11:15 PM 50.4 °F 49.1 °F 95% 30.01 in 0.2 mi Calm Calm - N/A Fog Fog
11:35 PM 51.1 °F 50.0 °F 96% 30.01 in 0.2 mi Calm Calm - N/A Fog Fog